Regional Weather Roundup
Issued by NWS

Home | Current Version | Previous Version | Graphics & Text | Print | Product List | Glossary Off
Versions: 1 2 3 4 5 6 7 8 9 10 11 12 13 14 15 16 17 18 19 20 21 22 23 24 25 26 27 28 29 30 31 32 33 34 35 36 37 38 39 40 41 42 43 44 45 46 47 48 49 50

000
ASUS43 KMPX 241101
RWRMN
WEATHER ROUNDUP FOR MINNESOTA
NATIONAL WEATHER SERVICE TWIN CITIES/CHANHASSEN MN
600 AM CDT THU JUL 24 2014


NOTE: "FAIR" INDICATES FEW OR NO CLOUDS BELOW 12,000 FEET WITH NO
SIGNIFICANT WEATHER AND/OR OBSTRUCTIONS TO VISIBILITY. N/A MEANS
CURRENT SKY AND/OR WEATHER CONDITIONS ARE NOT AVAILABLE.

MNZ060>063-068>070-241200-
   Twin Cities Metro

CITY           SKY/WX    TMP DP  RH WIND       PRES   REMARKS
TWIN CITIES    PTCLDY    63  57  81 CALM      30.16S
ST PAUL        CLEAR     62  57  83 E3        30.17S
CRYSTAL        CLEAR     58  55  90 CALM      30.15S
BLAINE         CLEAR     59  57  94 CALM      30.16S
LAKEVILLE      CLEAR     52  52 100 CALM      30.16F FOG
EDEN PRAIRIE   CLEAR     61  58  90 CALM      30.15F
SOUTH ST PAUL  CLEAR     60  56  88 CALM      30.16F
LAKE ELMO      FAIR      55  54  94 CALM      30.18S
$$
MNZ001>005-007-008-013>017-022>024-027-028-241200-
   Northwest Minnesota

CITY           SKY/WX    TMP DP  RH WIND       PRES   REMARKS
BEMIDJI        FOG       50  50  99 CALM      30.14F VSB 3/4
HALLOCK        PTCLDY    59  54  82 SE8       30.09F
ROSEAU         CLEAR     48  43  81 CALM      30.14S HAZE
THIEF RVR FALL PTCLDY    55  52  88 E6        30.12F
CROOKSTON      MOCLDY    57  55  94 SE5         N/A
FOSSTON        MOCLDY    54  48  82 CALM      30.14F
DETROIT LAKES  PTCLDY    61  55  82 SE3       30.14F
MOORHEAD       MOCLDY    63  61  94 SE3       30.11F
PARK RAPIDS    PTCLDY    54  53  97 CALM      30.15F FOG
$$
MNZ006-009>011-018-025>026-241200-
   North Central Minnesota

CITY           SKY/WX    TMP DP  RH WIND       PRES   REMARKS
BAUDETTE       PTCLDY    53  51  93 E3        30.16F
FLAG ISLAND    PTCLDY    63  57  82 NW3       30.13F
INTL FALLS     PTCLDY    47  45  93 CALM      30.17S
WASKISH        CLEAR     52  48  87 CALM      30.15F
BIG FORK       PTCLDY    46  46 100 CALM      30.18F
LONGVILLE      CLEAR     48  48 100 CALM      30.15F
GRAND RAPIDS   CLEAR     52  48  87 S3        30.17F
CRANE LAKE     CLEAR     43  41  93 CALM      30.20R
ORR            PTCLDY    46  45  93 CALM      30.16S
COOK           PTCLDY    45  45 100 CALM      30.19S
$$
MNZ012-019>021-037-241200-
   Northeast Minnesota

CITY           SKY/WX    TMP DP  RH WIND       PRES   REMARKS
DULUTH         MOCLDY    56  51  84 CALM      30.19S
ELY            CLEAR     43  41  93 CALM      30.19
HIBBING        PTCLDY    44  43  96 N3        30.18S FOG
EVELETH        PTCLDY    43  41  93 CALM      30.20R
DULUTH HARBOR  PTCLDY    55  54  94 CALM      30.19S
TWO HARBORS    CLEAR     46  43  87 CALM      30.17S
SILVER BAY     CLEAR     43  43 100 CALM      30.17F
GRAND MARAIS     N/A     48  46  93 CALM      30.17R
G MARAIS ARPRT CLEAR     43  39  87 W6        30.21R
$$
MNZ029>031-032-039>041-046>048-054>057-064-241200-
   West Central Minnesota

CITY           SKY/WX    TMP DP  RH WIND       PRES   REMARKS
FERGUS FALLS   PTCLDY    63  54  72 SE5       30.13S
WHEATON        CLEAR     55  54  94 SE8       30.13F
MORRIS         PTCLDY    55  54  94 SE6       30.13S
ALEXANDRIA     CLEAR     58  55  90 SE6       30.16F
ELBOW LAKE     FAIR      61  56  84 SE5       30.13F
WADENA         PTCLDY    52  50  93 CALM      30.14F
GLENWOOD       CLEAR     55  54  94 E6        30.15F
APPLETON       PTCLDY    55  54  94 CALM      30.13S
BENSON         PTCLDY    55  54  94 SE3       30.14F
ORTONVILLE     CLEAR     59  55  88 E5        30.12S
MADISON        CLEAR     57  55  94 SE3       30.12F
WILLMAR        FAIR      57  54  88 SE3       30.16F
$$
MNZ033>034-036-042>043-049>051-058-059-241200-
   Central Minnesota

CITY           SKY/WX    TMP DP  RH WIND       PRES   REMARKS
ST CLOUD       CLEAR     52  50  93 CALM      30.16S
SAUK CENTRE      N/A     53  52  98 CALM      30.16F FOG
PAYNESVILLE    CLEAR     49  49 100 CALM      30.16F
AITKIN         CLEAR     50  45  81 CALM      30.15F HAZE
PINE RIVER     PTCLDY    48  48 100 CALM      30.19F
BRAINERD       CLEAR     49  49 100 CALM      30.16F FOG
STAPLES        PTCLDY    54  52  94 CALM      30.15F
LONG PRAIRIE   FAIR      52  52 100 CALM      30.16F
LITTLE FALLS   PTCLDY    50  48  93 CALM      30.16F
LITCHFIELD       N/A     57  57 100 CALM      30.16F
BUFFALO        CLEAR     56  53  88 CALM      30.17S
MAPLE LAKE     CLEAR     54  54  97 CALM      30.17S
$$
MNZ037-044-045-052-053-241200-
   East Central Minnesota

CITY           SKY/WX    TMP DP  RH WIND       PRES   REMARKS
PRINCETON      CLEAR     52  52 100 CALM      30.17S FOG
MORA           PTCLDY    52  52 100 CALM      30.18F
CAMBRIDGE      CLEAR     54  46  76 CALM      30.15S
RUSH CITY      MOCLDY    52  51  95 CALM      30.18R
MOOSE LAKE     CLEAR     52  50  93 CALM      30.16F
HINCKLEY       FAIR      54  54 100 CALM      30.18S
CLOQUET        CLOUDY    55  52  88 CALM      30.18S
MCGREGOR       PTCLDY    52  50  93 CALM      30.18F
$$
MNZ071>073-080-081-089-090-097-098-241200-
   Southwest Minnesota

CITY           SKY/WX    TMP DP  RH WIND       PRES   REMARKS
MONTEVIDEO     PTCLDY    57  55  94 S5        30.14F
GRANITE FALLS  PTCLDY    56  53  89 E5        30.15F
CANBY          CLEAR     57  54  89 SE3       30.13F
MARSHALL       PTCLDY    57  52  82 SE3       30.12F
REDWOOD FALLS  CLEAR     58  56  93 E3        30.14F
OLIVIA         CLEAR     55  50  82 CALM      30.14F
PIPESTONE      PTCLDY    59  54  82 SE5       30.13F
WINDOM           N/A     55  52  88 CALM      30.15F
WORTHINGTON    CLEAR     55  52  88 SE3       30.16F
JACKSON        CLEAR     55  52  88 CALM      30.16S
TRACY          CLEAR     64  50  60 S6        30.14F
SLAYTON        CLEAR     58  53  83 CALM      30.16F
$$
MNZ065>067-074>077-082>085-091>093-241200-
   South Central Minnesota

CITY           SKY/WX    TMP DP  RH WIND       PRES   REMARKS
MANKATO        CLEAR     57  52  82 SE5       30.15F
NEW ULM        CLEAR     54  54 100 CALM      30.15F
ST JAMES       CLEAR     54  54 100 CALM      30.16F
FAIRMONT       CLEAR     55  50  82 CALM      30.15F
GLENCOE        CLEAR     56  52  87 CALM      30.15F
FARIBAULT      CLEAR     54  48  82 CALM      30.17F
OWATONNA       CLEAR     55  52  88 SE3       30.17S
WASECA         CLEAR     52  46  82 CALM      30.18F
ALBERT LEA     CLEAR     55  54  94 CALM      30.17S
$$
MNZ078>079-086>088-094>096-241200-
   Southeast Minnesota

CITY           SKY/WX    TMP DP  RH WIND       PRES   REMARKS
ROCHESTER      CLEAR     58  53  84 E3        30.19S
RED WING       CLEAR     54  52  94 CALM      30.16S
STANTON        CLEAR     53  51  92 CALM      30.16S
DODGE CENTER   PTCLDY    55  52  88 CALM      30.18S
WINONA         PTCLDY    55  55 100 CALM      30.18S
AUSTIN         CLEAR     55  54  94 CALM      30.17S
PRESTON        CLEAR     55  55 100 CALM      30.19S
$$
ABBREVIATIONS USED IN REMARKS
   TC - TEMPERATURES IN CELSIUS
  WCI - WIND CHILL INDEX
   HX - HEAT INDEX
  VSB - VISIBILITY
$$



USA.gov is the U.S. government's official web portal to all federal, state and local government web resources and services.